Regional Weather Roundup
Issued by NWS Mobile, AL

Current Version | Previous Version | Text Only | Print | Product List | Glossary On
Versions: 1 2 3 4 5 6 7 8 9 10 11 12 13 14 15 16 17 18 19 20 21 22 23 24 25 26 27 28 29 30 31 32 33 34 35 36 37 38 39 40 41 42 43 44 45 46 47 48 49 50
995 ASUS44 KMOB 191913 RWRMOB REGIONAL WEATHER ROUNDUP NATIONAL WEATHER SERVICE MOBILE AL 200 PM CDT MON APR 19 2021 NOTE: "FAIR" INDICATES FEW OR NO CLOUDS BELOW 12,000 FEET WITH NO SIGNIFICANT WEATHER AND/OR OBSTRUCTIONS TO VISIBILITY. * THESE STATIONS ARE PART OF THE UNIVERSITY OF SOUTH ALABAMA MESONET AND ARE NOT UNDER NWS OR FAA QUALITY CONTROL. ALZ061>064-192000- COASTAL ALABAMA CITY SKY/WX TMP DP RH WIND PRES REMARKS MOBILE REG APT MOSUNNY 70 40 33 VRB7 29.99F BROOKLEY FIELD SUNNY 71 44 37 NE12 30.00F USA CAMPUS* NOT AVBL DOG RIVER* NOT AVBL CITY SKY/WX TMP DP RH WIND PRES REMARKS GULF SHORES SUNNY 71 40 32 CALM 29.99F $$ ALZ051>060-192000- INTERIOR SOUTHWEST AND SOUTH CENTRAL ALABAMA CITY SKY/WX TMP DP RH WIND PRES REMARKS GREENVILLE NOT AVBL EVERGREEN SUNNY 73 42 32 MISG 29.99F ATMORE* N/A 68 46 45 NW6 30.01F ANDALUSIA/OPP NOT AVBL ANDALUSIA* N/A 70 41 35 NW5 29.98F FLORALA APT SUNNY 72 38 29 VRB3 29.99F FLORALA* NOT AVBL $$ FLZ001>006-192000- WESTERN FLORIDA PANHANDLE CITY SKY/WX TMP DP RH WIND PRES REMARKS PENSACOLA SUNNY 74 44 34 NW9 29.97F NAS PENSACOLA MOSUNNY 74 42 31 CALM 29.97F MILTON NOT AVBL WHTNG S FIELD MOSUNNY 74 44 34 N10 29.97F CITY SKY/WX TMP DP RH WIND PRES REMARKS JAY* NOT AVBL DUKE FIELD SUNNY 73 42 31 NE8 29.96F CRESTVIEW SUNNY 74 44 34 NW10G18 29.98F VALPARAISO SUNNY 74 39 27 N6 29.96F DESTIN SUNNY 74 44 34 NW3 29.96F $$ MSZ076-079-192000- INTERIOR SOUTHEAST MISSISSIPPI CITY SKY/WX TMP DP RH WIND PRES REMARKS LEAKESVILLE* NOT AVBL AGRICOLA* NOT AVBL $$ MARINE OBSERVATIONS STATION/POSITION TIME TEMP WIND PRES WAVE AIR SEA DIR/SP/G HT/PER (UTC) (F) (DEG/KT/KT) (MB) (FT/S) PETIT BOIS ISLND 1830 68 340/ 5/ 6 1016.3F E DAUPHIN ISLAND 1900 65 30/ 9/ 10 1015.6F MIDDLE BAY LIGHT 1830 66 340/ 11 1015.6F USCG MOBILE BAY 1830 67 66 50/ 7/ 14 1015.0F STATE DOCKS 1830 72 66 1015.9F FORT MORGAN 1830 66 30/ 10/ 12 1016.0F 12 S ORANGE BCH 1840 66 69 CALM 1016.8F PENSACOLA BAY 1830 72 69 30/ 5/ 9 1015.6F 64 S DAUPHIN ISL 1840 65 73 30/ 12/ 16 1016.4F $$ SELECTED LOCATIONS ACROSS THE REGION CITY SKY/WX TMP DP RH WIND PRES REMARKS NEW ORLEANS MOSUNNY 70 40 33 N10 30.01F GULFPORT SUNNY 72 41 32 N7 29.99F PASCAGOULA AP SUNNY 73 43 33 NE9 29.99F PASCAGOULA* NOT AVBL HATTIESBURG SUNNY 70 38 31 NE10 30.02F LAUREL SUNNY 70 42 36 VRB5 30.02F MERIDIAN SUNNY 70 38 31 MISG 30.01F JACKSON MOSUNNY 70 38 31 N7 30.02F MONTGOMERY SUNNY 72 42 34 VRB5 29.98F TROY SUNNY 73 41 31 NW5 29.98F ASHFORD* N/A 70 41 35 NW5 29.98F DOTHAN SUNNY 72 42 34 W9 29.99F PANAMA CITY SUNNY 73 48 41 NW9 29.95F $$

USA.gov is the U.S. government's official web portal to all federal, state and local government web resources and services.